Location: Mountain Grove
(34.0887°N, 86.6172°W)
Time: 21:55:29
(UTC+00:00)

Meteor 1-13 Rocket - Pass Details

Date: 14 July 2020
Orbit: 830 x 913 km, 81.3° (Epoch: 08 August)

Event Time Altitude Azimuth Distance (km) Brightness Sun altitude
Rises 07:59:01 0° 352° (N) 3,468 8.1 -26.7°
Reaches altitude 10° 08:01:29 10° 353° (N) 2,514 7.3 -26.4°
Maximum altitude 08:07:12 86° 82° (E) 859 4.1 -25.8°
Enters shadow 08:08:13 62° 166° (SSE) 953 4.2 -25.6°
